Flag for Czech Republic Weather past 2 weeks in Prague, Czech Republic

50 °F


Feels Like: 47 °F
Forecast: 48 / 68 °F
Wind: 7 mph from Southwest

Location: Prague Ruzyne Airport

Current Time: Oct 4, 2015 at 5:54:25 AM

Latest Report: Oct 4, 2015 at 5:00 AM

Visibility: 10 mi

Pressure: 29.98 "Hg

Humidity: 88%

Dew point: 46 °F

Location of PragueLocation

Historic Weather in Prague — Graph


Prague temperature yesterday

Maximum temperature yesterday: 64 °F (at 3:30 PM)
Minimum temperature yesterday: 41 °F (at 6:30 AM)
Average temperature yesterday: 54 °F

Past Weeks' High & Low Weather Summary

High70 °F (Sep 19, 3:30 PM)94% (Sep 19, 4:00 AM)30.57 "Hg (Sep 19, 4:00 AM)
Low34 °F (Oct 1, 6:00 AM)34% (Sep 28, 4:00 PM)29.68 "Hg (Sep 22, 6:00 PM)
Average53 °F67%30.21 "Hg
* Reported Sep 19 4:00 AM — Oct 4 4:30 AM, Prague, Weather by CustomWeather, © 2015

Note: Actual official high and low records may vary slightly from our data, if they occured in-between our weather recording intervals... More about our weather records


Prague weather history for previous 24 hours

Time TempWeatherWind HumidityBarometerVisibility
4:30 AM
Sun, Oct 4
46 °FClear.7 mph87%29.98 "Hg10 mi
4:00 AM46 °FClear.6 mph87%29.98 "Hg10 mi
3:30 AM46 °FClear.6 mph87%29.98 "Hg10 mi
3:00 AM48 °FClear.6 mph82%30.01 "Hg10 mi
2:30 AM48 °FClear.5 mph87%29.98 "Hg10 mi
2:00 AM50 °FClear.2 mph82%29.98 "Hg10 mi
1:30 AM50 °FClear.3 mph88%29.98 "Hg10 mi
1:00 AM52 °FClear.3 mph77%29.98 "Hg10 mi
12:30 AM54 °FClear.No wind77%29.98 "Hg10 mi
11:30 PM
Sat, Oct 3
54 °FClear.3 mph72%29.98 "Hg10 mi
11:00 PM54 °FClear.5 mph72%29.98 "Hg10 mi
10:30 PM54 °FClear.3 mph77%29.98 "Hg10 mi
10:00 PM54 °FClear.No wind72%29.98 "Hg10 mi
9:30 PM55 °FClear.5 mph72%29.98 "Hg10 mi
9:00 PM59 °FClear.1 mph63%29.98 "Hg10 mi
8:30 PM59 °FClear.2 mph63%29.98 "Hg10 mi
8:00 PM59 °FClear.2 mph63%30.01 "Hg10 mi
7:30 PM59 °FSunny.3 mph63%30.01 "Hg10 mi
7:00 PM59 °FSunny.3 mph63%29.98 "Hg10 mi
6:30 PM61 °FSunny.3 mph59%30.01 "Hg10 mi
6:00 PM61 °FSunny.3 mph63%29.98 "Hg10 mi
5:30 PM63 °FSunny.2 mph56%29.98 "Hg10 mi
5:00 PM64 °FSunny.3 mph52%29.98 "Hg10 mi
4:30 PM64 °FSunny.5 mph52%30.01 "Hg10 mi
4:00 PM64 °FSunny.6 mph52%30.01 "Hg10 mi
3:30 PM64 °FSunny.7 mph52%30.01 "Hg10 mi
3:00 PM63 °FSunny.7 mph52%30.01 "Hg10 mi
2:30 PM63 °FSunny.6 mph52%30.01 "Hg10 mi
2:00 PM61 °FSunny.6 mph55%30.04 "Hg10 mi
1:30 PM63 °FSunny.8 mph52%30.04 "Hg10 mi
1:00 PM61 °FSunny.7 mph55%30.04 "Hg10 mi
12:30 PM59 °FSunny.6 mph55%30.07 "Hg10 mi
12:00 PM59 °FSunny.6 mph59%30.07 "Hg10 mi
11:30 AM57 °FSunny.7 mph63%30.07 "Hg10 mi
11:00 AM57 °FSunny.7 mph59%30.07 "Hg10 mi
10:30 AM54 °FSunny.6 mph67%30.07 "Hg10 mi
10:00 AM54 °FSunny.5 mph67%30.07 "Hg10 mi
9:30 AM50 °FSunny.5 mph76%30.07 "Hg10 mi
9:00 AM50 °FSunny.3 mph76%30.07 "Hg10 mi
8:30 AM46 °FSunny.2 mph82%30.09 "Hg10 mi
8:00 AM45 °FClear.3 mph87%30.07 "Hg10 mi
7:30 AM41 °FClear.2 mph87%30.07 "Hg10 mi
7:00 AM43 °FClear.3 mph87%30.09 "Hg10 mi
6:30 AM41 °FClear.3 mph87%30.09 "Hg10 mi
6:00 AM43 °FClear.3 mph81%30.09 "Hg10 mi
5:30 AM43 °FClear.5 mph87%30.09 "Hg10 mi
5:00 AM43 °FClear.6 mph87%30.09 "Hg10 mi
Weather by CustomWeather, © 2015

See weather overviewHow to use our weather pages